Location: ?????????
(36.4131°N, 25.4800°E)
Time: 00:01:16
(UTC+00:00)

Daily predictions for brighter satellites

Satellite Brightness Start Highest point End
(mag) Time Altitude Azimuth Time Altitude Azimuth Time Altitude Azimuth
Cosmos 2237 Rocket 4.4 01:05:41 21° ENE 01:05:41 21° ENE 01:08:12 10° NE
ATLAS 2AS CENTAUR R/B 3.3 01:29:02 63° NNE 01:29:02 63° NNE 01:35:37 10° NNE
USA 238 DEB 4.0 01:37:59 64° ESE 01:37:59 64° ESE 01:44:16 10° SE
USA 238 4.0 01:38:01 65° ESE 01:38:01 65° ESE 01:44:21 10° SE
CZ-2C R/B 4.4 01:52:56 10° NE 01:57:20 27° E 02:01:38 10° SSE
SL-16 R/B 4.0 01:53:19 10° SSE 01:58:04 29° ESE 02:02:53 10° NE
NOSS 3-2 (A) 4.0 01:58:25 55° NW 02:00:35 87° WSW 02:09:07 10° SSE
IDEFIX/ARIANE 42P 3.4 01:57:03 10° NNE 02:00:32 43° NNE 02:00:32 43° NNE
Milstar 3 Cent rocket 3.9 02:03:23 24° S 02:03:33 24° S 02:07:45 10° ESE
USA 267 3.9 01:58:30 10° NNE 02:03:56 41° NNW 02:03:56 41° NNW
RESURS DK-1 3.9 02:08:37 34° ESE 02:08:37 34° ESE 02:12:12 10° NE
Cosmos 2278 Rocket 2.4 02:10:08 43° N 02:11:58 70° ENE 02:17:36 10° SSE
Cosmos 2333 Rocket 4.1 02:21:07 16° NNW 02:21:07 16° NNW 02:22:38 10° N
Cosmos 407 Rocket 4.1 02:19:37 44° N 02:19:37 44° N 02:23:11 10° NNE
Cosmos 1190 Rocket 4.1 02:19:54 64° N 02:19:54 64° N 02:24:27 10° NNE
Cosmos 2074 Rocket 3.8 02:20:20 22° S 02:24:29 83° W 02:30:45 10° N
NOSS 3-2 (C) 4.0 02:20:07 21° NNW 02:25:53 88° WSW 02:34:28 10° SSE
Centaur D-1AR AC-39 4.1 02:28:16 10° S 02:28:59 11° SSE 02:29:59 10° SE
Cosmos 2219 Rocket 4.2 02:37:21 13° NNW 02:37:21 13° NNW 02:38:26 10° NNW
USA 234 3.7 02:29:09 10° ESE 02:35:31 57° NE 02:40:51 15° NW
NOSS 3-4 (A) 3.8 02:38:18 41° NW 02:38:27 41° NW 02:44:21 10° NNE
NOSS 3-4 (C) 3.8 02:38:20 41° NW 02:38:31 41° NW 02:44:27 10° NNE
Cosmos 489 Rocket 4.3 02:36:12 10° NNW 02:42:26 73° WSW 02:48:40 10° S
BREEZE-M DEB (TANK) 4.2 02:31:06 10° SW 02:44:42 51° SE 02:48:17 10° ENE
Cosmos 2237 Rocket 2.8 02:47:34 36° NW 02:47:34 36° NW 02:52:33 10° N
USA 32 4.4 02:48:40 41° WNW 02:48:40 41° WNW 02:53:02 10° N
Cosmos 1437 Rocket 4.0 02:46:01 10° SSE 02:49:35 41° E 02:53:09 10° NNE
Cosmos 1892 Rocket 4.0 02:45:22 10° S 02:49:45 64° E 02:54:07 10° NNE
ATLAS 3B R/B 2.6 02:47:53 10° NNW 02:54:38 89° WSW 03:01:35 10° SSE
ADEOS 4.3 02:50:11 10° N 02:54:07 32° NW 02:54:07 32° NW
Cosmos 1140 Rocket 3.7 02:54:56 40° WSW 02:56:00 46° WNW 03:00:59 10° N
Cosmos 1954 Rocket 3.9 02:52:34 21° SSW 02:56:01 65° WNW 03:01:13 10° NNE
SJ-6F 4.4 02:53:52 10° N 02:57:58 60° WNW 03:00:19 24° SSW
H-2A R/B 3.1 02:58:46 10° N 03:02:20 35° WNW 03:02:20 35° WNW
CENTAUR R/B 3.2 02:56:08 10° NW 03:04:23 72° WSW 03:13:04 10° SSE
PSLV R/B 4.3 03:01:16 10° NNE 03:04:54 57° E 03:08:32 10° S
Cosmos 1606 Rocket 3.4 03:01:12 10° N 03:05:31 75° W 03:09:49 10° S
Meteor 1-4 Rocket 3.8 03:07:37 25° NNW 03:07:37 25° NNW 03:09:27 10° N
GP-B 3.5 03:02:34 10° SSE 03:06:57 67° E 03:11:21 10° N
PAYLOAD A 4.2 03:04:34 10° N 03:09:14 44° WNW 03:14:01 10° SW
Cosmos 44 3.4 03:08:53 34° W 03:09:42 38° WSW 03:13:41 10° S
BREEZE-M DEB (TANK) 3.0 03:10:11 26° SW 03:10:11 26° SW 03:11:59 10° SSE
Cosmos 1953 2.6 03:11:20 10° NNW 03:15:08 42° W 03:18:54 10° SSW
Cosmos 1726 2.5 03:12:04 10° N 03:15:42 63° E 03:19:20 10° SSE
ATLAS 2AS CENTAUR R/B 4.2 03:16:30 19° WNW 03:19:36 23° NW 03:25:45 10° N
IUS-9 SRM-1 4.0 03:18:16 11° SSW 03:19:55 16° SSE 03:23:17 10° ESE
CZ-4B R/B 3.0 03:17:36 10° N 03:21:20 43° WNW 03:24:52 10° SW
Cosmos 962 Rocket 4.4 03:15:14 10° S 03:21:30 78° W 03:27:53 10° N
Meteor 1-31 Rocket 3.2 03:21:50 10° N 03:25:20 36° WNW 03:28:48 10° SW
Meteor 2-17 Rocket 4.4 03:19:23 10° S 03:25:28 89° E 03:31:33 10° N
Cosmos 44 Rocket 3.8 03:21:00 10° NNW 03:25:38 57° ENE 03:30:14 10° SE
Okean 1-7 Rocket 3.9 03:25:01 10° SSW 03:29:13 42° W 03:33:29 10° N
Cosmos 2154 Rocket 4.3 03:25:13 10° SSW 03:30:59 40° WNW 03:36:47 10° N
Cosmos 1356 3.6 03:28:38 10° NNW 03:31:58 47° W 03:35:17 10° S
COSMO-SKYMED 1 2.9 03:27:50 10° SSE 03:32:08 72° ENE 03:36:28 10° N
Cosmos 1943 Rocket 4.0 03:27:17 10° N 03:32:18 31° ENE 03:37:17 10° ESE
Cosmos 1674 2.5 03:29:50 10° SSW 03:33:31 69° W 03:37:14 10° N
CZ-2C R/B 3.2 03:30:57 10° N 03:35:28 31° WNW 03:39:55 10° SW
COBE Rocket 4.0 03:32:15 10° S 03:37:16 86° WSW 03:42:26 10° NNW
Cosmos 1741 Rocket 4.0 03:32:34 10° SSW 03:37:52 71° WNW 03:43:12 10° NNE
Cosmos 2228 3.5 03:34:08 10° NNW 03:37:59 35° W 03:41:49 10° SSW
FENGYUN 3A 4.3 03:32:51 10° NNE 03:38:15 61° E 03:43:37 10° S
IDEFIX/ARIANE 42P 4.3 03:39:24 10° NW 03:41:09 12° WNW 03:41:19 12° WNW
Cosmos 1484 Rocket 2.8 03:37:31 10° N 03:41:16 57° WNW 03:45:03 10° SSW
Cosmos 1603 4.2 03:36:10 10° S 03:41:41 64° ESE 03:47:16 10° NNE
SL-16 R/B 2.8 03:36:54 10° SW 03:42:01 35° WNW 03:47:10 10° N
SL-8 R/B 3.7 03:37:46 10° WSW 03:42:34 73° NNW 03:47:21 10° NE
Meteor 1-24 Rocket 3.9 03:37:00 10° S 03:42:43 86° E 03:48:39 10° N
Cosmos 1726 Rocket 4.2 03:41:41 10° NNW 03:45:29 31° W 03:49:17 10° SSW
RESURS DK-1 3.9 03:44:36 13° W 03:46:34 18° WNW 03:49:24 10° NNW
Cosmos 1763 Rocket 4.3 03:45:46 10° N 03:50:50 55° ENE 03:55:48 10° SSE
Helios 1A Rocket 2.9 03:46:44 10° N 03:50:54 78° WNW 03:55:01 10° SSW
Cosmos 2278 Rocket 3.8 03:52:45 10° WNW 03:55:19 13° W 03:57:53 10° SW
Cosmos 1626 3.1 03:52:25 10° S 03:56:00 52° E 03:59:38 10° NNE
Cosmos 2297 4.0 03:53:33 10° NW 03:59:01 47° WSW 04:04:28 10° S
Cosmos 1602 Rocket 3.5 03:54:53 10° S 03:59:12 79° W 04:03:32 10° N
Cosmos 2341 Rocket 4.4 03:53:34 10° SSW 03:59:24 41° WNW 04:05:15 10° N
Cosmos 864 Rocket 4.5 03:53:29 10° S 03:59:40 81° W 04:05:58 10° N
Milstar 3 3.7 03:53:36 10° WSW 03:59:58 42° S 04:06:58 10° ESE
NOAA 6 4.1 03:55:35 10° NNE 04:00:46 86° WNW 04:05:55 10° SSW
Cosmos 1300 4.0 04:00:08 10° N 04:03:49 45° E 04:07:28 10° SSE
ISS -0.7 04:02:19 10° S 04:04:38 17° SE 04:06:57 10° E
